[[{"header":{"parameterUnit":"m.s-1","parameterCategory":1,"la1":30.2991,"la2":30.254,"lo1":-89.0895,"lo2":-89.0444,"dy":0.0017,"dx":0.0017,"nx":28,"ny":28,"refTime":"2026-01-30T09:00:00:Z","depth":0,"parameterNumber":2,"parameterNumberName":"U-component_of_WINDS"},"data":[0,0,0,0,0,0,0,0,0,0,0,0,0,0,0,0,0,0,0,0,0,0,0,0,0,0,0,0,0,0,0,0,0,0,0,0,0,0,0,0,0,0,0,0,0,0,0,0,0,0,0,0,0,0,0,0,0,0,3.5666,3.5666,0,3.5722,3.5722,3.5723,3.5688,3.5686,3.5685,3.5683,3.5738,3.5741,3.5744,0,0,0,0,0,0,0,0,0,0,0,0,0,3.5528,3.5531,3.5666,3.5666,3.5667,3.5721,3.5722,3.5723,3.5688,3.5686,3.5684,3.5682,3.5737,3.574,3.5744,0,0,0,0,0,0,0,0,0,0,0,0,0,3.5586,3.5532,3.5666,3.5656,3.5656,3.5721,3.5722,3.5723,3.5689,3.5686,3.5684,3.5681,3.5736,3.574,3.5744,3.5821,0,0,3.5758,3.576,0,0,0,0,0,0,0,0,3.5583,3.5591,3.5657,3.5657,3.5657,3.5695,3.5694,3.5756,3.5689,3.5676,3.5683,3.568,3.5725,3.5731,3.5746,3.5824,3.5826,3.5758,3.5761,3.5763,3.5764,0,0,0,0,0,0,0,3.5579,3.5589,3.5688,3.5658,3.5658,3.5649,3.5655,3.5705,3.5714,3.5677,3.5675,3.5682,3.5725,3.5742,3.5747,3.5827,3.5758,3.5762,3.5765,3.5767,3.5972,3.5974,0,0,0,0,0,0,3.5576,3.5586,3.5686,3.5689,3.5613,3.5654,3.566,3.5685,3.5713,3.5715,3.5684,3.568,3.5736,3.5742,3.5749,3.5842,3.5763,3.5767,3.577,3.5969,3.5972,3.5975,0,0,0,0,0,0,3.5573,3.5585,3.5684,3.5637,3.5649,3.5659,3.5688,3.5688,3.5705,3.5718,3.572,3.57,3.5734,3.5743,3.5804,3.5843,3.5769,3.5773,3.5966,3.597,3.5974,3.6027,0,0,0,0,0,0,3.557,3.5585,3.5614,3.5638,3.5652,3.5738,3.569,3.5691,3.5713,3.5709,3.5734,3.5736,3.5733,3.5798,3.5809,3.5848,3.5777,3.5962,3.5968,3.5972,3.6022,3.6033,3.6042,0,0,0,0,0,3.5565,3.5626,3.5615,3.5628,3.5688,3.574,3.5748,3.5744,3.5716,3.5746,3.5755,3.5735,3.5837,3.5804,3.5816,3.5858,3.596,3.5966,3.5972,3.6018,3.6031,3.6042,0,0,0,0,0,0,3.5604,3.5629,3.5617,3.5688,3.5713,3.5734,3.5771,3.5758,3.579,3.5784,3.5778,3.5784,3.5848,3.5859,3.5821,3.5934,3.5894,3.5903,3.5925,3.5937,3.5947,3.5943,3.5781,0,0,0,0,0,3.5622,3.5662,3.5681,3.5742,3.5755,3.5761,3.5784,3.5779,3.5803,3.5813,3.5826,3.5851,3.5889,3.5913,3.5949,3.6024,3.6029,3.6058,3.6068,3.6076,3.6084,3.6126,3.6139,3.5996,3.5996,3.5995,0,0,3.5657,3.5676,3.5701,3.575,3.5769,3.5811,3.577,3.5816,3.5847,3.582,3.5879,3.589,3.5917,3.5985,3.6016,3.5996,3.6125,3.6084,3.6091,3.6094,3.6134,3.6147,3.6159,3.6,3.5999,3.5998,0,0,3.5744,3.5761,3.5815,3.5834,3.5863,3.5868,3.5881,3.5905,3.5912,3.5971,3.5952,3.5989,3.6054,3.6074,3.6093,3.619,3.6173,3.6202,3.6254,3.6294,3.6306,3.6316,3.6351,3.6364,3.621,3.621,3.621,0,3.5784,3.5847,3.5843,3.5892,3.5914,3.5893,3.5947,3.5966,3.6005,3.6021,3.5999,3.6081,3.6098,3.6172,3.6196,3.6211,3.6226,3.6199,3.6305,3.6315,3.6324,3.6357,3.6371,3.6213,3.6213,3.6212,3.6212,0,3.5896,3.594,3.5979,3.6019,3.6046,3.6097,3.6101,3.6129,3.6122,3.6129,3.6191,3.621,3.625,3.6267,3.626,3.6341,3.6328,3.6305,3.6265,3.6341,3.6372,3.6385,3.6218,3.6217,3.6216,3.6215,0,0,3.6007,3.6046,3.606,3.6079,3.611,3.6144,3.6195,3.6235,3.6259,3.6287,3.6329,3.6386,3.6366,3.6388,3.6384,3.642,3.6497,3.6393,3.6393,3.6412,3.6587,3.6604,3.6619,3.6486,3.6488,3.649,3.6585,0,3.6096,3.6184,3.6184,3.6266,3.6307,3.6289,3.6333,3.6357,3.6366,3.6402,3.6411,3.6451,3.6421,3.6435,3.6469,3.648,3.6532,3.6473,3.6525,3.6527,3.6519,3.6635,3.6653,3.6742,3.6598,3.66,3.6601,0,3.621,3.6244,3.6331,3.6358,3.6376,3.6415,3.6453,3.6488,3.6515,3.6519,3.6544,3.6535,3.6587,3.6546,3.6617,3.6577,3.6599,3.6607,3.6611,3.6615,3.6568,3.6643,3.677,3.6783,3.662,3.6619,3.6617,0,3.6284,3.6351,3.6412,3.6428,3.6461,3.649,3.6505,3.653,3.6555,3.6588,3.6604,3.6642,3.6663,3.6693,3.6694,3.6664,3.6767,3.6725,3.6771,3.6771,3.6793,3.6792,3.6925,3.6807,3.6807,3.6807,3.6806,0,3.6383,3.6437,3.6445,3.6483,3.6543,3.6542,3.6602,3.6614,3.6637,3.6677,3.6663,3.6701,3.67,3.6739,3.674,3.68,3.6809,3.6814,3.6813,3.6815,3.6814,3.6829,3.6822,3.681,3.6809,3.6809,3.6808,0,3.6475,3.6482,3.6548,3.6575,3.6583,3.6626,3.6649,3.6685,3.6693,3.6743,3.6755,3.6767,3.6812,3.6817,3.6868,3.6869,3.6941,3.6934,3.6933,3.6931,3.6977,3.6973,3.7124,3.7145,3.7013,3.7015,3.7016,0,3.6537,3.6579,3.6611,3.6637,3.6654,3.6696,3.6722,3.6723,3.6751,3.6787,3.6818,3.6862,3.6897,3.6969,3.6982,3.7022,3.7016,3.7067,3.7022,3.7023,3.7017,3.7015,3.702,3.7075,3.7076,3.7077,3.7078,0,3.6648,3.6651,3.6689,3.6729,3.6761,3.6792,3.6822,3.6844,3.6849,3.6881,3.6927,3.6954,3.7008,3.7052,3.7091,3.7106,3.7094,3.7093,3.7106,3.7107,3.7105,3.7108,3.6956,3.7089,3.7088,3.7087,3.7087,3.7086,3.6727,3.6764,3.6793,3.6837,3.6859,3.6888,3.6924,3.6937,3.6976,3.702,3.7018,3.707,3.7098,3.715,3.7168,3.7208,3.7192,3.721,3.7215,3.7219,3.7224,3.7099,3.7215,3.7215,3.7215,3.7215,3.7214,0,3.6838,3.6856,3.6897,3.6939,3.6974,3.696,3.6993,3.7023,3.7068,3.7096,3.7131,3.7185,3.7228,3.7246,3.7288,3.7317,3.7312,3.7328,3.7325,3.7329,3.7236,3.7221,3.7331,3.7331,3.7331,3.7331,3.7331,3.7331,3.69,3.6961,3.6967,3.7041,3.7058,3.7109,3.7129,3.7156,3.7178,3.7239,3.7276,3.7287,3.7311,3.7355,3.7394,3.7398,3.7415,3.7433,3.7435,3.7347,3.7336,3.7324,3.731,3.7437,3.7437,3.7524,3.7525,3.7526]},{"header":{"parameterUnit":"m.s-1","parameterCategory":1,"la1":30.2991,"la2":30.254,"lo1":-89.0895,"lo2":-89.0444,"dy":0.0017,"dx":0.0017,"nx":28,"ny":28,"refTime":"2026-01-30T09:00:00:Z","depth":0,"parameterNumber":3,"parameterNumberName":"V-component_of_WINDS"},"data":[0,0,0,0,0,0,0,0,0,0,0,0,0,0,0,0,0,0,0,0,0,0,0,0,0,0,0,0,0,0,0,0,0,0,0,0,0,0,0,0,0,0,0,0,0,0,0,0,0,0,0,0,0,0,0,0,0,0,-8.7532,-8.7534,0,-8.7715,-8.7717,-8.7719,-8.7661,-8.7657,-8.7653,-8.7649,-8.7829,-8.7837,-8.7846,0,0,0,0,0,0,0,0,0,0,0,0,0,-8.7125,-8.7133,-8.7531,-8.7534,-8.7536,-8.7715,-8.7717,-8.7719,-8.7661,-8.7656,-8.7652,-8.7647,-8.7827,-8.7836,-8.7847,0,0,0,0,0,0,0,0,0,0,0,0,0,-8.7304,-8.7135,-8.7531,-8.7529,-8.753,-8.7714,-8.7717,-8.772,-8.7662,-8.7656,-8.765,-8.7645,-8.7823,-8.7836,-8.7848,-8.8043,0,0,-8.7887,-8.7892,0,0,0,0,0,0,0,0,-8.7294,-8.7319,-8.7527,-8.7529,-8.7531,-8.7659,-8.764,-8.7828,-8.7664,-8.7612,-8.7649,-8.7642,-8.7777,-8.7793,-8.784,-8.8051,-8.8059,-8.7888,-8.7895,-8.7901,-8.7904,0,0,0,0,0,0,0,-8.7282,-8.7311,-8.7604,-8.753,-8.7533,-8.7516,-8.7535,-8.7675,-8.7725,-8.7616,-8.7612,-8.7635,-8.7777,-8.7828,-8.7844,-8.8062,-8.7887,-8.7899,-8.7906,-8.7911,-8.8442,-8.8449,0,0,0,0,0,0,-8.7269,-8.7301,-8.7598,-8.7609,-8.7396,-8.7529,-8.755,-8.7624,-8.7723,-8.7733,-8.764,-8.7632,-8.7809,-8.7829,-8.785,-8.8085,-8.7901,-8.7913,-8.792,-8.8436,-8.8444,-8.8451,0,0,0,0,0,0,-8.726,-8.7296,-8.7591,-8.7454,-8.7491,-8.7542,-8.7625,-8.763,-8.7681,-8.7741,-8.7749,-8.7683,-8.7805,-8.7832,-8.7996,-8.809,-8.7918,-8.793,-8.8428,-8.8438,-8.8447,-8.8557,0,0,0,0,0,0,-8.7249,-8.7293,-8.7369,-8.7457,-8.7498,-8.7736,-8.7631,-8.7638,-8.7704,-8.7695,-8.7784,-8.7793,-8.7803,-8.7977,-8.8009,-8.8105,-8.794,-8.842,-8.8433,-8.8444,-8.8545,-8.8569,-8.859,0,0,0,0,0,-8.7235,-8.7391,-8.7373,-8.7409,-8.7595,-8.7742,-8.7765,-8.7775,-8.7712,-8.7788,-8.7827,-8.779,-8.8075,-8.7995,-8.8029,-8.8131,-8.8414,-8.8429,-8.8443,-8.8535,-8.8564,-8.8589,0,0,0,0,0,0,-8.731,-8.7402,-8.7384,-8.7573,-8.7651,-8.7731,-8.7827,-8.7806,-8.7901,-8.7888,-8.7894,-8.7915,-8.8083,-8.8123,-8.8032,-8.8325,-8.8235,-8.8257,-8.8293,-8.8321,-8.8343,-8.833,-8.795,0,0,0,0,0,-8.735,-8.7464,-8.7537,-8.7697,-8.7737,-8.7776,-8.784,-8.7842,-8.7921,-8.7952,-8.8003,-8.8079,-8.8185,-8.8255,-8.8357,-8.855,-8.8569,-8.8637,-8.866,-8.8678,-8.8697,-8.8802,-8.8834,-8.8499,-8.8499,-8.8499,0,0,-8.7431,-8.7495,-8.7566,-8.7714,-8.7774,-8.789,-8.7803,-8.7929,-8.8015,-8.797,-8.8129,-8.8169,-8.8254,-8.8434,-8.8516,-8.8473,-8.8793,-8.8696,-8.871,-8.872,-8.8821,-8.8852,-8.888,-8.8509,-8.8507,-8.8506,0,0,-8.7639,-8.7699,-8.784,-8.7903,-8.7995,-8.8021,-8.8054,-8.814,-8.8165,-8.8325,-8.8294,-8.8395,-8.8579,-8.8641,-8.8697,-8.893,-8.89,-8.8963,-8.9079,-8.9182,-8.9209,-8.9232,-8.9316,-8.9345,-8.8981,-8.8982,-8.8982,0,-8.7727,-8.7904,-8.7914,-8.8044,-8.811,-8.8078,-8.8219,-8.8278,-8.8399,-8.8444,-8.8394,-8.8625,-8.868,-8.8874,-8.8932,-8.8978,-8.9016,-8.8952,-8.9205,-8.9228,-8.925,-8.933,-8.9361,-8.8989,-8.8988,-8.8987,-8.8987,0,-8.8008,-8.8131,-8.8233,-8.8353,-8.843,-8.8565,-8.8594,-8.8671,-8.8666,-8.8696,-8.8859,-8.8924,-8.9039,-8.9085,-8.908,-8.9279,-8.9249,-8.9203,-8.9112,-8.9289,-8.9364,-8.9394,-8.8999,-8.8996,-8.8994,-8.8992,0,0,-8.8268,-8.8394,-8.8431,-8.8486,-8.8587,-8.8681,-8.8814,-8.8928,-8.8994,-8.9078,-8.9189,-8.9346,-8.9304,-8.9367,-8.9369,-8.9459,-8.964,-8.9401,-8.9403,-8.9443,-8.9864,-8.9899,-8.9934,-8.9621,-8.9627,-8.9632,-8.9857,0,-8.8484,-8.8722,-8.8736,-8.8949,-8.9063,-8.9034,-8.915,-8.9223,-8.9255,-8.9354,-8.9387,-8.9499,-8.9435,-8.9473,-8.9561,-8.96,-8.9725,-8.9584,-8.9723,-8.9728,-8.9703,-8.9973,-9.001,-9.0219,-8.9886,-8.9891,-8.9894,0,-8.8769,-8.8865,-8.9091,-8.9177,-8.9225,-8.9329,-8.9436,-8.9531,-8.9613,-8.963,-8.9702,-8.9692,-8.9826,-8.9732,-8.9917,-8.9821,-8.9879,-8.9906,-8.9915,-8.9928,-8.9822,-8.9993,-9.0286,-9.0317,-8.994,-8.9937,-8.9934,0,-8.8936,-8.9122,-8.9281,-8.9329,-8.9433,-8.9507,-8.9553,-8.963,-8.9698,-8.9791,-8.9835,-8.9941,-8.9999,-9.008,-9.0098,-9.0028,-9.0283,-9.019,-9.03,-9.03,-9.0354,-9.0351,-9.0661,-9.0392,-9.0392,-9.0391,-9.039,0,-8.9176,-8.9316,-8.9358,-8.9456,-8.9612,-8.9626,-8.9778,-8.9819,-8.9888,-8.9992,-8.9973,-9.007,-9.0088,-9.0189,-9.0204,-9.0355,-9.0381,-9.0397,-9.0399,-9.0399,-9.0397,-9.0437,-9.0423,-9.0399,-9.0397,-9.0396,-9.0394,0,-8.9389,-8.9423,-8.9596,-8.9681,-8.9706,-8.9816,-8.9888,-8.9982,-9.0012,-9.0144,-9.0176,-9.0222,-9.034,-9.0367,-9.0506,-9.0515,-9.0695,-9.0683,-9.0668,-9.0667,-9.0775,-9.0765,-9.1121,-9.1169,-9.0869,-9.0872,-9.0874,0,-8.954,-8.9648,-8.9745,-8.9815,-8.9866,-8.9978,-9.0049,-9.0067,-9.0141,-9.0243,-9.0324,-9.0441,-9.0535,-9.0725,-9.077,-9.0876,-9.0866,-9.0984,-9.0882,-9.0879,-9.0868,-9.0862,-9.0873,-9.1003,-9.1007,-9.1009,-9.1011,0,-8.9805,-8.9817,-8.9921,-9.0032,-9.0118,-9.0205,-9.0287,-9.0345,-9.0374,-9.0458,-9.058,-9.0654,-9.0798,-9.0913,-9.1021,-9.1066,-9.1044,-9.1043,-9.1074,-9.1075,-9.1063,-9.1071,-9.0722,-9.1035,-9.1032,-9.1031,-9.1029,-9.1029,-8.9992,-9.0086,-9.0171,-9.0287,-9.0352,-9.043,-9.0523,-9.0566,-9.0669,-9.079,-9.0793,-9.0926,-9.1005,-9.1148,-9.12,-9.1303,-9.1266,-9.1311,-9.1322,-9.1333,-9.1343,-9.1047,-9.1322,-9.1322,-9.1321,-9.1321,-9.132,0,-9.0256,-9.0309,-9.0417,-9.0535,-9.0626,-9.06,-9.0691,-9.0769,-9.0887,-9.0964,-9.1059,-9.1199,-9.1312,-9.1366,-9.1477,-9.1549,-9.1542,-9.1578,-9.1572,-9.1583,-9.1369,-9.1332,-9.1582,-9.1582,-9.1582,-9.1582,-9.1582,-9.1582,-9.0404,-9.0563,-9.0585,-9.0775,-9.0827,-9.096,-9.1014,-9.1085,-9.1147,-9.1306,-9.1401,-9.1437,-9.1505,-9.1621,-9.1722,-9.1735,-9.1777,-9.1818,-9.1826,-9.1625,-9.1598,-9.1573,-9.1537,-9.1827,-9.1827,-9.2031,-9.2033,-9.2034]}]]